Location: Bathsheba
(13.2167°N, 59.5167°W)
Time: 11:09:52
(UTC+00:00)

Daily predictions for brighter satellites

Satellite Brightness Start Highest point End
(mag) Time Altitude Azimuth Time Altitude Azimuth Time Altitude Azimuth
NOAA 11 4.2 22:09:22 10° SSE 22:14:49 69° ENE 22:20:16 10° N
USA 234 3.3 22:20:22 10° NE 22:26:56 87° SE 22:33:29 10° SW
Meteor 1-23 Rocket 4.2 22:21:45 10° N 22:27:19 90° E 22:32:51 10° S
ATLAS 5 CENTAUR R/B 1.7 22:27:15 10° NW 22:28:38 17° N 22:30:34 10° NE
Cosmos 1066 Rocket 4.4 22:24:55 10° N 22:30:17 75° W 22:35:45 10° S
MOS 1 Rocket 3.5 22:28:08 10° NNE 22:32:09 39° E 22:36:08 10° S
Sich 1 Rocket 4.0 22:28:16 10° SSE 22:32:22 38° E 22:36:31 10° NNE
H-2A R/B 3.4 22:30:30 10° ESE 22:33:33 17° ENE 22:36:37 10° NE
Cosmos 1674 Rocket 3.7 22:30:50 10° N 22:35:17 83° W 22:39:43 10° S
Iridium 4 Rocket 3.2 22:33:18 10° S 22:37:44 89° ESE 22:42:35 10° N
Cosmos 1174 3.8 22:35:28 10° SSW 22:39:09 71° ESE 22:43:48 10° NNE
ATLAS 2AS CENTAUR R/B 3.8 22:39:17 10° SSE 22:45:15 25° ESE 22:51:23 10° ENE
SL-24 R/B 4.2 22:41:17 10° S 22:45:39 77° W 22:49:55 10° NNW
Cosmos 1844 4.3 22:42:30 10° SSE 22:47:37 34° ESE 22:52:41 10° NE
Cosmos 158 Rocket 4.3 22:43:45 10° N 22:48:34 41° ENE 22:53:14 10° SE
Delta 168 4.1 22:46:35 10° NW 22:49:57 23° N 22:51:33 17° NE
Cosmos 1939 Rocket 3.7 22:46:46 10° S 22:50:44 55° W 22:54:44 10° NNW
Helios 1A Rocket 3.6 22:47:28 10° S 22:51:26 56° WSW 22:55:26 10° NNW
Intelsat 5-3 Rocket 3.5 22:47:29 10° WNW 22:51:34 67° NNE 22:58:07 20° ESE
Okean 2 Rocket 3.5 22:48:01 10° SSE 22:52:15 41° E 22:56:28 10° NNE
Okean-O 2.7 22:51:37 10° S 22:56:01 78° W 23:00:26 10° NNW
CZ-2C R/B 3.2 22:52:50 10° SSE 22:57:33 48° ENE 23:02:32 10° N
CZ-2C R/B 3.1 22:52:30 10° NNE 22:57:40 39° E 23:02:51 10° SSE
CZ-2D R/B 3.8 22:54:06 10° S 22:57:55 60° W 23:01:45 10° NNW
Cosmos 1844 Rocket 2.6 22:53:40 10° S 22:59:07 60° ESE 23:04:34 10° NNE
SL-16 R/B 3.0 22:54:07 10° NNW 22:59:36 54° WSW 23:05:05 10° S
Cosmos 1513 Rocket 4.5 22:55:22 10° S 23:01:40 66° E 23:07:52 10° NNE
Cosmos 1300 Rocket 3.5 23:00:22 10° S 23:04:39 59° E 23:08:56 10° NNE
GPS 2-17 Rocket1 3.0 23:01:46 10° WSW 23:06:27 87° SSE 23:08:25 35° ENE
Cosmos 1464 Rocket 3.8 23:03:54 10° S 23:10:00 75° E 23:16:06 10° N
YAOGAN 1 2.7 23:06:06 10° S 23:10:24 73° WSW 23:14:42 10° NNW
Intelsat 5-1 Rocket 4.2 22:49:57 10° WSW 23:13:55 79° SSE 23:18:29 30° ENE
Meteor 1-12 Rocket 4.3 23:07:55 10° S 23:13:56 90° N 23:19:52 10° N
Cosmos 2298 Rocket 4.2 23:10:17 10° SSW 23:15:36 76° WNW 23:20:55 10° N
Cosmos 923 Rocket 4.2 23:10:28 10° NNW 23:15:38 71° WSW 23:20:47 10° S
CSL-04 Debris 4.0 23:13:46 10° SSE 23:19:10 82° ENE 23:24:33 10° N
ASTRO E2 2.6 23:15:34 10° WNW 23:19:31 73° SSW 23:20:01 62° SSE
Delta 7925 Rocket 4.4 23:17:52 10° W 23:22:32 41° SSW 23:24:59 27° SSE
Cosmos 1943 3.7 23:20:14 10° N 23:24:49 38° NE 23:24:49 38° NE
CSL-04 Rocket 3.6 23:23:15 10° S 23:28:36 84° WSW 23:34:00 10° NNW
CZ-4 R/B 3.5 23:25:34 10° SSW 23:29:12 28° W 23:32:50 10° NW
Cosmos 1932 4.4 23:24:13 10° NNW 23:30:31 83° WSW 23:34:16 25° SSE
Cosmos 2151 Rocket 3.6 23:29:05 10° S 23:33:29 80° W 23:37:54 10° N
Meteor 1-21 4.3 23:32:26 10° N 23:37:59 72° W 23:43:33 10° S
OAO 3 Copernicus 4.2 23:35:25 10° NW 23:40:17 81° NNW 23:40:17 81° NNW
Cosmos 1603 3.5 23:39:29 10° NNW 23:44:57 80° NE 23:44:57 80° NE
